• In Hungary
  • List of Countries
  • For 7 days
  • Water Temperature
  • Satellite Maps
  • Weather Map
  • News
  • Weather Widgets
  • user-avatar
    Login

    Hourly Weather Bangalore

    Today, 18 January, Thursday

    Time Temperature Precipitation Wind Pressure Humidity
    00:00 +19°C° 0 mm 2 mps 684 mmHg 58%
    01:00 +18°C° 0 mm 2 mps 684 mmHg 61%
    02:00 +18°C° 0 mm 2 mps 683 mmHg 64%
    03:00 +17°C° 0 mm 2 mps 683 mmHg 66%
    04:00 +18°C° 0 mm 1 mps 683 mmHg 68%
    05:00 +16°C° 0 mm 1 mps 683 mmHg 72%
    06:00 +17°C° 0 mm 2 mps 684 mmHg 68%
    07:00 +19°C° 0 mm 2 mps 684 mmHg 63%
    08:00 +20°C° 0 mm 2 mps 685 mmHg 58%
    09:00 +22°C° 0 mm 3 mps 685 mmHg 48%
    10:00 +25°C° 0 mm 4 mps 685 mmHg 38%
    11:00 +28°C° 0 mm 5 mps 686 mmHg 29%
    12:00 +28°C° 0 mm 4 mps 686 mmHg 27%
    13:00 +29°C° 0 mm 4 mps 685 mmHg 24%
    14:00 +29°C° 0 mm 4 mps 684 mmHg 22%
    15:00 +29°C° 0 mm 4 mps 684 mmHg 24%
    16:00 +28°C° 0 mm 4 mps 684 mmHg 26%
    17:00 +27°C° 0 mm 4 mps 684 mmHg 28%
    18:00 +25°C° 0 mm 4 mps 684 mmHg 32%
    19:00 +24°C° 0 mm 3 mps 684 mmHg 37%
    20:00 +21°C° 0 mm 3 mps 684 mmHg 41%
    21:00 +20°C° 0 mm 3 mps 684 mmHg 46%
    22:00 +19°C° 0 mm 3 mps 684 mmHg 51%
    23:00 +18°C° 0 mm 3 mps 684 mmHg 56%

    Tomorrow, 19 January, Friday

    Time Temperature Precipitation Wind Pressure Humidity
    00:00 +18°C° 0 mm 3 mps 684 mmHg 60%
    01:00 +17°C° 0 mm 2 mps 684 mmHg 64%
    02:00 +16°C° 0 mm 2 mps 683 mmHg 68%
    03:00 +16°C° 0 mm 2 mps 683 mmHg 69%
    04:00 +16°C° 0 mm 2 mps 683 mmHg 70%
    05:00 +15°C° 0 mm 2 mps 683 mmHg 72%
    06:00 +17°C° 0 mm 2 mps 684 mmHg 64%
    07:00 +18°C° 0 mm 2 mps 685 mmHg 57%
    08:00 +19°C° 0 mm 2 mps 685 mmHg 49%
    09:00 +21°C° 0 mm 3 mps 686 mmHg 41%
    10:00 +25°C° 0 mm 4 mps 686 mmHg 32%
    11:00 +27°C° 0 mm 4 mps 687 mmHg 23%
    12:00 +28°C° 0 mm 4 mps 686 mmHg 22%
    13:00 +29°C° 0 mm 4 mps 685 mmHg 20%
    14:00 +29°C° 0 mm 4 mps 684 mmHg 18%
    15:00 +29°C° 0 mm 4 mps 684 mmHg 21%
    16:00 +28°C° 0 mm 4 mps 684 mmHg 24%
    17:00 +27°C° 0 mm 4 mps 684 mmHg 27%
    18:00 +25°C° 0 mm 3 mps 684 mmHg 33%
    19:00 +24°C° 0 mm 3 mps 685 mmHg 40%
    20:00 +21°C° 0 mm 3 mps 685 mmHg 46%
    21:00 +20°C° 0 mm 3 mps 685 mmHg 53%
    22:00 +19°C° 0 mm 3 mps 685 mmHg 59%
    23:00 +18°C° 0 mm 3 mps 684 mmHg 66%

    Day after tomorrow, 20 January, Saturday

    Time Temperature Precipitation Wind Pressure Humidity
    00:00 +18°C° 0 mm 3 mps 684 mmHg 71%
    01:00 +17°C° 0 mm 2 mps 683 mmHg 75%
    02:00 +16°C° 0 mm 2 mps 683 mmHg 79%
    03:00 +16°C° 0 mm 2 mps 683 mmHg 80%
    04:00 +16°C° 0 mm 2 mps 683 mmHg 80%
    05:00 +15°C° 0 mm 1 mps 683 mmHg 80%
    06:00 +17°C° 0 mm 2 mps 683 mmHg 72%
    07:00 +18°C° 0 mm 2 mps 684 mmHg 64%
    08:00 +19°C° 0 mm 2 mps 685 mmHg 55%
    09:00 +21°C° 0 mm 3 mps 685 mmHg 46%
    10:00 +25°C° 0 mm 3 mps 685 mmHg 36%
    11:00 +27°C° 0 mm 4 mps 686 mmHg 26%
    12:00 +28°C° 0 mm 4 mps 685 mmHg 24%
    13:00 +29°C° 0 mm 3 mps 684 mmHg 22%
    14:00 +29°C° 0 mm 3 mps 683 mmHg 20%
    15:00 +29°C° 0 mm 3 mps 683 mmHg 21%
    16:00 +28°C° 0 mm 3 mps 683 mmHg 23%
    17:00 +28°C° 0 mm 3 mps 683 mmHg 25%
    18:00 +26°C° 0 mm 3 mps 684 mmHg 31%
    19:00 +24°C° 0 mm 3 mps 684 mmHg 36%
    20:00 +21°C° 0 mm 3 mps 684 mmHg 42%
    21:00 +20°C° 0 mm 3 mps 684 mmHg 50%
    22:00 +19°C° 0 mm 3 mps 684 mmHg 58%
    23:00 +18°C° 0 mm 3 mps 684 mmHg 67%

    21 January, Sunday

    Time Temperature Precipitation Wind Pressure Humidity
    00:00 +18°C° 0 mm 3 mps 683 mmHg 72%
    01:00 +17°C° 0 mm 2 mps 683 mmHg 77%
    02:00 +17°C° 0 mm 2 mps 682 mmHg 82%
    03:00 +16°C° 0 mm 2 mps 682 mmHg 83%
    04:00 +16°C° 0 mm 2 mps 682 mmHg 85%
    05:00 +16°C° 0 mm 2 mps 682 mmHg 86%
    06:00 +17°C° 0 mm 2 mps 683 mmHg 78%
    07:00 +18°C° 0 mm 2 mps 684 mmHg 71%
    08:00 +19°C° 0 mm 2 mps 685 mmHg 63%
    09:00 +21°C° 0 mm 2 mps 685 mmHg 50%
    10:00 +25°C° 0 mm 3 mps 685 mmHg 38%
    11:00 +27°C° 0 mm 3 mps 685 mmHg 26%
    12:00 +28°C° 0 mm 3 mps 684 mmHg 24%
    13:00 +28°C° 0 mm 3 mps 684 mmHg 21%
    14:00 +29°C° 0 mm 3 mps 683 mmHg 19%
    15:00 +29°C° 0 mm 3 mps 683 mmHg 20%
    16:00 +28°C° 0 mm 3 mps 683 mmHg 22%
    17:00 +28°C° 0 mm 3 mps 683 mmHg 24%
    18:00 +26°C° 0 mm 3 mps 683 mmHg 29%
    19:00 +24°C° 0 mm 3 mps 683 mmHg 33%
    20:00 +21°C° 0 mm 3 mps 684 mmHg 38%
    21:00 +20°C° 0 mm 3 mps 684 mmHg 47%
    22:00 +19°C° 0 mm 3 mps 683 mmHg 55%
    23:00 +18°C° 0 mm 4 mps 683 mmHg 63%

    22 January, Monday

    Time Temperature Precipitation Wind Pressure Humidity
    00:00 +18°C° 0 mm 3 mps 683 mmHg 68%
    01:00 +17°C° 0 mm 3 mps 682 mmHg 72%
    02:00 +16°C° 0 mm 2 mps 681 mmHg 77%
    03:00 +16°C° 0 mm 2 mps 681 mmHg 76%
    04:00 +15°C° 0 mm 2 mps 681 mmHg 76%
    05:00 +15°C° 0 mm 2 mps 681 mmHg 75%
    06:00 +16°C° 0 mm 2 mps 682 mmHg 66%
    07:00 +17°C° 0 mm 2 mps 683 mmHg 56%
    08:00 +19°C° 0 mm 2 mps 684 mmHg 47%
    09:00 +21°C° 0 mm 3 mps 684 mmHg 38%
    10:00 +23°C° 0 mm 4 mps 684 mmHg 29%
    11:00 +27°C° 0 mm 4 mps 684 mmHg 20%
    12:00 +27°C° 0 mm 4 mps 684 mmHg 20%
    13:00 +28°C° 0 mm 4 mps 683 mmHg 19%
    14:00 +29°C° 0 mm 3 mps 682 mmHg 19%
    15:00 +28°C° 0 mm 3 mps 682 mmHg 22%
    16:00 +27°C° 0 mm 3 mps 682 mmHg 25%
    17:00 +27°C° 0 mm 3 mps 682 mmHg 29%
    18:00 +25°C° 0 mm 3 mps 682 mmHg 35%
    19:00 +22°C° 0 mm 3 mps 683 mmHg 41%
    20:00 +21°C° 0 mm 3 mps 683 mmHg 47%
    21:00 +20°C° 0 mm 3 mps 683 mmHg 50%
    22:00 +19°C° 0 mm 3 mps 683 mmHg 54%
    23:00 +19°C° 0 mm 3 mps 683 mmHg 58%

    23 January, Tuesday

    Time Temperature Precipitation Wind Pressure Humidity
    00:00 +18°C° 0 mm 3 mps 683 mmHg 62%
    01:00 +17°C° 0 mm 2 mps 682 mmHg 65%
    02:00 +17°C° 0 mm 2 mps 681 mmHg 69%
    03:00 +16°C° 0 mm 1 mps 681 mmHg 70%
    04:00 +16°C° 0 mm 1 mps 681 mmHg 70%
    05:00 +16°C° 0 mm 1 mps 681 mmHg 71%
    06:00 +18°C° 0 mm 1 mps 682 mmHg 66%
    07:00 +19°C° 0 mm 1 mps 683 mmHg 60%
    08:00 +20°C° 0 mm 1 mps 684 mmHg 55%
    09:00 +23°C° 0 mm 1 mps 684 mmHg 46%
    10:00 +25°C° 0 mm 1 mps 684 mmHg 38%
    11:00 +27°C° 0 mm 1 mps 684 mmHg 30%
    12:00 +28°C° 0 mm 1 mps 683 mmHg 26%
    13:00 +29°C° 0 mm 1 mps 683 mmHg 23%
    14:00 +30°C° 0 mm 1 mps 682 mmHg 20%
    15:00 +30°C° 0 mm 1 mps 682 mmHg 20%
    16:00 +30°C° 0 mm 1 mps 682 mmHg 21%
    17:00 +29°C° 0 mm 1 mps 682 mmHg 21%
    18:00 +28°C° 0 mm 1 mps 682 mmHg 24%
    19:00 +26°C° 0 mm 1 mps 683 mmHg 26%
    20:00 +24°C° 0 mm 2 mps 683 mmHg 29%
    21:00 +23°C° 0 mm 2 mps 683 mmHg 33%
    22:00 +21°C° 0 mm 2 mps 683 mmHg 37%
    23:00 +20°C° 0 mm 3 mps 683 mmHg 41%
    Show more